Time,TemperatureF,DewpointF,PressureIn,WindDirection,WindDirectionDegrees,WindSpeedMPH,WindSpeedGustMPH,Humidity,HourlyPrecipIn,Conditions,Clouds,dailyrainin,SolarRadiationWatts/m^2,SoftwareType,DateUTC
2013-03-04 00:01:00,61.0,40.0,-100.00,NE,50,3.0,4.0,45,0.00,,,0.00,0.000000,,2013-03-04 07:01:00,
2013-03-04 00:32:00,61.0,24.0,-100.00,West,266,8.0,8.0,24,0.00,,,0.00,0.000000,,2013-03-04 07:32:00,
2013-03-04 01:42:00,68.0,30.0,-100.00,WNW,290,14.0,14.0,24,0.00,,,0.00,0.000000,,2013-03-04 08:42:00,
2013-03-04 01:52:00,68.0,30.0,-100.00,WNW,290,14.0,14.0,24,0.00,,,0.00,0.000000,,2013-03-04 08:52:00,
2013-03-04 02:32:00,68.0,31.0,-100.00,NW,316,13.0,22.0,25,0.00,,,0.00,0.000000,,2013-03-04 09:32:00,
2013-03-04 03:32:00,67.0,33.0,-100.00,WNW,290,19.0,26.0,28,-99.99,,,0.00,0.000000,,2013-03-04 10:32:00,
2013-03-04 03:42:00,67.0,33.0,-100.00,WNW,290,19.0,26.0,28,-99.99,,,0.00,0.000000,,2013-03-04 10:42:00,
2013-03-04 03:52:00,67.0,33.0,-100.00,WNW,290,19.0,26.0,28,-99.99,,,0.00,0.000000,,2013-03-04 10:52:00,
2013-03-04 04:01:00,67.0,33.0,-100.00,WNW,290,19.0,26.0,28,-99.99,,,0.00,0.000000,,2013-03-04 11:01:00,
2013-03-04 04:32:00,66.0,35.0,-100.00,NW,304,14.0,32.0,32,0.00,,,0.00,0.000000,,2013-03-04 11:32:00,
2013-03-04 04:42:00,66.0,35.0,-100.00,NW,304,14.0,32.0,32,0.00,,,0.00,0.000000,,2013-03-04 11:42:00,
2013-03-04 04:52:00,66.0,35.0,-100.00,NW,304,14.0,32.0,32,0.00,,,0.00,0.000000,,2013-03-04 11:52:00,
2013-03-04 05:01:00,66.0,35.0,-100.00,NW,304,14.0,32.0,32,0.00,,,0.00,0.000000,,2013-03-04 12:01:00,
2013-03-04 05:32:00,62.0,37.0,-100.00,WNW,294,14.0,29.0,39,0.00,,,0.00,0.000000,,2013-03-04 12:32:00,
2013-03-04 05:42:00,62.0,37.0,-100.00,WNW,294,14.0,29.0,39,0.00,,,0.00,0.000000,,2013-03-04 12:42:00,
2013-03-04 05:53:00,62.0,37.0,-100.00,WNW,294,14.0,29.0,39,0.00,,,0.00,0.000000,,2013-03-04 12:53:00,
2013-03-04 06:02:00,62.0,37.0,-100.00,WNW,294,14.0,29.0,39,0.00,,,0.00,0.000000,,2013-03-04 13:02:00,
2013-03-04 06:32:00,61.0,40.0,-100.00,West,280,10.0,20.0,46,0.00,,,0.00,0.000000,,2013-03-04 13:32:00,
2013-03-04 06:42:00,61.0,40.0,-100.00,West,280,10.0,20.0,46,0.00,,,0.00,0.000000,,2013-03-04 13:42:00,
2013-03-04 06:52:00,61.0,40.0,-100.00,West,280,10.0,20.0,46,0.00,,,0.00,0.000000,,2013-03-04 13:52:00,
2013-03-04 07:01:00,61.0,40.0,-100.00,West,280,10.0,20.0,46,0.00,,,0.00,0.000000,,2013-03-04 14:01:00,
2013-03-04 07:32:00,60.0,40.0,-100.00,NW,305,7.0,18.0,48,0.00,,,0.00,0.000000,,2013-03-04 14:32:00,
2013-03-04 07:42:00,60.0,40.0,-100.00,NW,305,7.0,18.0,48,0.00,,,0.00,0.000000,,2013-03-04 14:42:00,
2013-03-04 07:52:00,60.0,40.0,-100.00,NW,305,7.0,18.0,48,0.00,,,0.00,0.000000,,2013-03-04 14:52:00,
2013-03-04 08:01:00,60.0,40.0,-100.00,NW,305,7.0,18.0,48,0.00,,,0.00,0.000000,,2013-03-04 15:01:00,
2013-03-04 08:32:00,58.0,37.0,-100.00,NNW,335,0.0,15.0,45,0.00,,,0.00,0.000000,,2013-03-04 15:32:00,
2013-03-04 08:42:00,58.0,37.0,-100.00,NNW,335,0.0,15.0,45,0.00,,,0.00,0.000000,,2013-03-04 15:42:00,
2013-03-04 08:52:00,58.0,37.0,-100.00,NNW,335,0.0,15.0,45,0.00,,,0.00,0.000000,,2013-03-04 15:52:00,
2013-03-04 09:02:00,58.0,37.0,-100.00,NNW,335,0.0,15.0,45,0.00,,,0.00,0.000000,,2013-03-04 16:02:00,
2013-03-04 09:32:00,59.0,35.0,-100.00,WNW,303,7.0,9.0,40,0.00,,,0.00,61.000000,,2013-03-04 16:32:00,
2013-03-04 09:42:00,59.0,35.0,-100.00,WNW,303,7.0,9.0,40,0.00,,,0.00,61.000000,,2013-03-04 16:42:00,
2013-03-04 09:52:00,59.0,35.0,-100.00,WNW,303,7.0,9.0,40,0.00,,,0.00,61.000000,,2013-03-04 16:52:00,
2013-03-04 10:01:00,59.0,35.0,-100.00,WNW,303,7.0,9.0,40,0.00,,,0.00,61.000000,,2013-03-04 17:01:00,
2013-03-04 10:42:00,62.0,33.0,-100.00,NW,311,8.0,10.0,34,0.00,,,0.00,257.000000,,2013-03-04 17:42:00,
2013-03-04 10:52:00,62.0,33.0,-100.00,NW,311,8.0,10.0,34,0.00,,,0.00,257.000000,,2013-03-04 17:52:00,
2013-03-04 11:01:00,62.0,33.0,-100.00,NW,311,8.0,10.0,34,0.00,,,0.00,257.000000,,2013-03-04 18:01:00,
2013-03-04 11:32:00,66.0,32.0,-100.00,WNW,298,10.0,14.0,28,0.00,,,0.00,551.000000,,2013-03-04 18:32:00,
2013-03-04 12:32:00,71.0,31.0,-100.00,WNW,299,10.0,18.0,23,0.00,,,0.00,738.000000,,2013-03-04 19:32:00,
2013-03-04 13:32:00,77.0,32.0,-100.00,NW,305,5.0,18.0,19,0.00,,,0.00,890.000000,,2013-03-04 20:32:00,
2013-03-04 14:32:00,79.0,33.0,-100.00,WNW,298,5.0,17.0,19,0.00,,,0.00,994.000000,,2013-03-04 21:32:00,
2013-03-04 14:43:00,79.0,33.0,-100.00,WNW,298,5.0,17.0,19,0.00,,,0.00,994.000000,,2013-03-04 21:43:00,
2013-03-04 14:52:00,79.0,33.0,-100.00,WNW,298,5.0,17.0,19,0.00,,,0.00,994.000000,,2013-03-04 21:52:00,
2013-03-04 15:01:00,79.0,33.0,-100.00,WNW,298,5.0,17.0,19,0.00,,,0.00,994.000000,,2013-03-04 22:01:00,
2013-03-04 15:32:00,80.0,31.0,-100.00,NW,306,4.0,14.0,17,0.00,,,0.00,1031.000000,,2013-03-04 22:32:00,
2013-03-04 15:43:00,80.0,31.0,-100.00,NW,306,4.0,14.0,17,0.00,,,0.00,1031.000000,,2013-03-04 22:43:00,
2013-03-04 15:52:00,80.0,31.0,-100.00,NW,306,4.0,14.0,17,0.00,,,0.00,1031.000000,,2013-03-04 22:52:00,
2013-03-04 16:01:00,80.0,31.0,-100.00,NW,306,4.0,14.0,17,0.00,,,0.00,1031.000000,,2013-03-04 23:01:00,
2013-03-04 16:32:00,82.0,34.0,-100.00,WSW,252,6.0,13.0,18,0.00,,,0.00,868.000000,,2013-03-04 23:32:00,
2013-03-04 16:42:00,82.0,34.0,-100.00,WSW,252,6.0,13.0,18,0.00,,,0.00,868.000000,,2013-03-04 23:42:00,
2013-03-04 16:52:00,82.0,34.0,-100.00,WSW,252,6.0,13.0,18,0.00,,,0.00,868.000000,,2013-03-04 23:52:00,
2013-03-04 17:01:00,82.0,34.0,-100.00,WSW,252,6.0,13.0,18,0.00,,,0.00,868.000000,,2013-03-05 00:01:00,
2013-03-04 17:42:00,82.0,33.0,-100.00,WSW,244,3.0,12.0,17,0.00,,,0.00,701.000000,,2013-03-05 00:42:00,
2013-03-04 17:52:00,82.0,33.0,-100.00,WSW,244,3.0,12.0,17,0.00,,,0.00,701.000000,,2013-03-05 00:52:00,
2013-03-04 18:01:00,82.0,33.0,-100.00,WSW,244,3.0,12.0,17,0.00,,,0.00,701.000000,,2013-03-05 01:01:00,
2013-03-04 19:42:00,77.0,38.0,-100.00,West,274,4.0,11.0,25,-99.99,,,0.00,199.000000,,2013-03-05 02:42:00,
2013-03-04 19:52:00,77.0,38.0,-100.00,West,274,4.0,11.0,25,-99.99,,,0.00,199.000000,,2013-03-05 02:52:00,
2013-03-04 20:01:00,77.0,38.0,-100.00,West,274,4.0,11.0,25,-99.99,,,0.00,199.000000,,2013-03-05 03:01:00,
2013-03-04 20:32:00,74.0,39.0,-100.00,WSW,239,2.0,9.0,28,0.00,,,0.00,21.000000,,2013-03-05 03:32:00,
2013-03-04 20:42:00,74.0,39.0,-100.00,WSW,239,2.0,9.0,28,0.00,,,0.00,21.000000,,2013-03-05 03:42:00,
2013-03-04 20:52:00,74.0,39.0,-100.00,WSW,239,2.0,9.0,28,0.00,,,0.00,21.000000,,2013-03-05 03:52:00,
2013-03-04 21:01:00,74.0,39.0,-100.00,WSW,239,2.0,9.0,28,0.00,,,0.00,21.000000,,2013-03-05 04:01:00,
2013-03-04 21:32:00,69.0,42.0,-100.00,SW,221,0.0,5.0,37,0.00,,,0.00,0.000000,,2013-03-05 04:32:00,
2013-03-04 21:42:00,69.0,42.0,-100.00,SW,221,0.0,5.0,37,0.00,,,0.00,0.000000,,2013-03-05 04:42:00,
2013-03-04 21:52:00,69.0,42.0,-100.00,SW,221,0.0,5.0,37,0.00,,,0.00,0.000000,,2013-03-05 04:52:00,
2013-03-04 22:01:00,69.0,42.0,-100.00,SW,221,0.0,5.0,37,0.00,,,0.00,0.000000,,2013-03-05 05:01:00,
2013-03-04 22:32:00,64.0,40.0,-100.00,NE,43,0.0,5.0,41,0.00,,,0.00,0.000000,,2013-03-05 05:32:00,
2013-03-04 22:42:00,64.0,40.0,-100.00,NE,43,0.0,5.0,41,0.00,,,0.00,0.000000,,2013-03-05 05:42:00,
2013-03-04 22:52:00,64.0,40.0,-100.00,NE,43,0.0,5.0,41,0.00,,,0.00,0.000000,,2013-03-05 05:52:00,
2013-03-04 23:01:00,64.0,40.0,-100.00,NE,43,0.0,5.0,41,0.00,,,0.00,0.000000,,2013-03-05 06:01:00,
2013-03-04 23:32:00,62.0,42.0,-100.00,East,88,0.0,2.0,48,0.00,,,0.00,0.000000,,2013-03-05 06:32:00,
2013-03-04 23:42:00,62.0,42.0,-100.00,East,88,0.0,2.0,48,0.00,,,0.00,0.000000,,2013-03-05 06:42:00,
2013-03-04 23:52:00,62.0,42.0,-100.00,East,88,0.0,2.0,48,0.00,,,0.00,0.000000,,2013-03-05 06:52:00,